GFSNE_prec_snow_144.txt.gz
Snowfall_Accumulation
0.0 0.0 0.0 0.0 0.0 0.0 0.0 0.0 4.1 3.8 0.5 0.0 0.0 0.0 0.0 0.0 0.0 0.0 0.0 0.0 0.0 0.0 0.0 0.0 0.0 0.0 0.0 0.0 0.0 0.0 0.0 0.0 0.0 0.0 0.0 0.0 0.0 0.0
0.0 0.0 0.0 0.0 0.0 0.0 0.0 0.0 0.8 1.4 0.8 0.0 0.0 0.0 0.0 0.0 0.0 0.0 0.0 0.0 0.0 0.0 0.0 0.0 0.0 0.0 0.0 0.0 0.0 0.0 0.0 0.0 0.0 0.0 0.0 0.0 0.0 0.0
0.0 0.0 0.0 0.0 0.0 0.0 0.0 0.0 0.0 0.1 0.3 0.0 0.0 0.0 0.0 0.0 0.0 0.0 0.0 0.0 0.0 0.0 0.0 0.0 0.0 0.0 0.0 0.0 0.0 0.0 0.0 0.0 0.0 0.0 0.0 0.0 0.0 0.0
0.0 0.0 0.0 0.0 0.0 0.0 0.0 0.0 0.0 0.0 0.0 0.0 0.0 0.0 0.0 0.0 0.0 0.0 0.0 0.0 0.0 0.0 0.0 0.0 0.0 0.0 0.0 0.0 0.0 0.0 0.0 0.0 0.0 0.0 0.0 0.0 0.0 0.0
0.0 0.0 0.0 0.0 0.0 0.0 0.0 0.0 0.0 0.0 0.0 0.2 0.0 0.0 0.0 0.0 0.0 0.0 0.0 0.0 0.0 0.0 0.0 0.0 0.0 0.0 0.0 0.0 0.0 0.0 0.0 0.0 0.0 0.0 0.0 0.0 0.0 0.1
0.0 0.0 0.0 0.0 0.0 0.0 0.0 0.0 0.0 0.1 0.1 0.2 0.1 0.2 0.2 0.0 0.1 0.3 0.2 0.1 0.1 0.0 0.0 0.0 0.0 0.0 0.0 0.0 0.0 0.0 0.0 0.0 0.0 0.0 0.0 0.0 0.0 0.0
0.0 0.0 0.0 0.0 0.0 0.0 0.0 0.0 0.1 0.4 0.5 0.6 0.4 0.3 0.1 0.0 0.3 0.6 0.7 0.4 0.1 0.0 0.3 0.2 0.0 0.0 0.0 0.0 0.0 0.0 0.0 0.0 0.0 0.0 0.1 0.0 0.0 0.0
4.0 2.6 1.5 0.0 3.4 0.0 0.0 0.1 0.2 0.8 1.3 1.0 0.4 0.5 0.1 0.5 0.6 0.6 0.7 0.7 0.6 0.4 0.7 0.5 0.1 0.4 0.0 0.8 0.0 0.7 0.0 0.0 0.2 0.0 0.0 0.0 0.1 0.8
5.7 5.9 4.2 4.1 3.3 1.8 1.4 0.0 0.0 0.1 0.7 0.9 1.3 0.7 0.7 0.6 0.6 0.4 1.1 2.5 1.9 0.2 0.5 0.5 0.4 0.2 0.0 0.0 0.0 0.0 0.0 0.0 0.0 0.0 0.1 0.1 0.1 0.0
2.9 2.5 1.0 0.9 2.5 1.9 3.8 3.5 0.7 0.8 0.1 1.1 1.8 2.0 2.2 2.5 0.2 0.5 1.1 2.2 0.3 1.5 1.1 1.6 1.3 1.4 0.9 0.0 0.0 0.0 0.0 0.0 0.0 0.0 0.0 0.0 0.1 0.1
0.7 0.5 0.5 0.4 0.3 0.8 0.7 0.8 0.6 0.9 0.9 0.8 2.2 1.3 2.4 1.2 3.1 4.5 4.1 6.0 5.1 2.9 0.7 1.7 1.0 1.0 0.6 1.6 1.1 0.7 0.3 1.2 1.3 0.6 1.3 3.3 3.6 3.7
0.1 0.2 0.2 0.4 1.3 1.0 1.6 1.3 1.2 0.7 1.4 1.4 1.0 0.6 1.7 1.5 1.3 1.6 2.0 4.1 3.8 3.5 1.9 2.7 1.4 2.9 6.8 8.1 7.5 6.3 5.5 4.9 5.3 3.9 3.8 3.7 3.6 3.6
0.1 0.1 0.1 2.4 2.2 1.2 0.8 1.0 1.4 1.7 1.2 1.0 0.9 1.6 1.1 1.3 1.6 1.3 1.8 3.4 4.1 2.7 4.3 11.4 14.1 12.7 14.1 11.9 8.4 6.8 5.4 5.5 4.7 3.4 2.6 2.2 2.0 1.9
5.9 6.7 6.5 3.8 5.3 3.6 3.0 4.0 4.0 5.1 4.9 3.4 3.1 4.5 10.9 7.0 7.9 7.7 9.4 9.7 8.4 9.8 10.5 10.2 12.7 12.2 11.6 10.8 8.3 6.5 4.4 4.4 4.5 5.6 6.0 5.3 4.1 3.2
10.2 10.1 9.5 9.3 10.2 9.9 11.0 10.9 10.9 12.5 12.5 15.9 22.8 21.5 20.0 17.2 15.2 12.8 10.9 10.3 11.0 7.9 10.0 10.5 10.5 9.7 9.3 11.0 8.8 6.3 8.4 5.4 3.8 3.9 6.5 6.9 7.6 6.8
5.1 5.1 5.5 6.2 6.0 10.3 12.1 9.2 12.5 20.2 21.3 22.4 21.4 21.4 19.5 17.9 16.8 16.4 14.8 15.4 15.2 13.8 13.6 13.4 13.1 14.0 14.9 13.7 12.8 11.3 9.8 9.9 7.4 8.2 10.0 11.9 13.6 13.0
6.7 12.9 17.1 11.4 14.9 16.9 16.0 16.3 16.1 16.4 16.1 15.7 14.9 14.4 12.7 12.1 11.6 10.8 11.0 10.2 10.6 8.9 8.8 10.4 9.9 10.3 9.8 10.3 11.7 9.9 9.6 9.4 9.3 11.2 9.2 12.3 14.1 14.0
14.5 14.6 14.5 14.1 13.4 12.8 12.7 11.9 10.1 10.0 8.9 8.1 7.3 6.6 6.6 6.2 5.5 4.7 4.7 5.4 5.6 4.7 4.6 5.1 7.1 6.7 6.7 6.2 6.6 8.4 7.0 6.6 6.5 6.7 6.8 9.7 11.7 14.8
10.6 8.0 9.7 9.0 7.6 6.5 5.9 5.5 5.2 4.5 3.1 3.6 3.8 3.1 2.1 1.7 1.9 1.8 1.5 1.3 1.6 1.4 1.6 2.8 3.5 5.3 6.4 6.0 4.5 3.4 6.3 4.9 4.4 4.7 4.0 6.0 9.0 10.1
5.2 4.7 5.0 4.1 3.1 2.7 3.0 2.7 2.6 1.5 1.7 1.0 1.3 1.2 1.5 1.8 1.7 1.2 0.9 1.3 1.1 0.6 0.6 0.5 0.6 1.7 4.9 7.4 6.8 2.4 2.5 6.5 4.1 3.3 3.3 4.4 3.9 5.4
3.4 3.3 2.9 3.0 3.1 2.7 2.5 2.6 2.7 2.6 1.6 2.9 2.5 3.1 3.2 3.4 2.7 2.0 2.6 2.0 1.9 1.7 1.1 0.3 0.1 0.8 1.5 2.4 5.0 2.8 1.6 1.5 1.8 2.1 3.6 4.0 2.9 4.0
2.9 2.7 1.7 2.4 2.1 1.9 2.3 2.4 2.4 2.0 2.2 2.3 2.1 1.6 2.0 2.0 2.2 1.5 1.6 1.7 1.2 1.3 0.6 0.3 0.3 0.9 1.7 2.3 2.8 2.7 1.5 2.1 0.8 1.1 2.1 3.2 5.4 6.7
2.2 1.5 1.6 1.6 1.5 1.6 1.6 1.8 1.6 1.5 1.7 2.0 2.0 1.8 1.8 2.1 1.7 1.6 1.3 1.3 1.3 0.9 0.7 1.1 1.2 1.1 1.3 0.9 1.2 2.9 1.5 2.2 1.3 2.4 2.0 1.7 2.9 2.1

GFSNE_prec_snow_150.txt.gz
Snowfall_Accumulation
0.0 0.0 0.0 0.0 0.0 0.0 0.0 0.0 4.1 3.8 0.5 0.0 0.0 0.0 0.0 0.0 0.0 0.0 0.0 0.0 0.0 0.0 0.0 0.0 0.0 0.0 0.0 0.0 0.0 0.0 0.0 0.0 0.0 0.0 0.0 0.0 0.0 0.0
0.0 0.0 0.0 0.0 0.0 0.0 0.0 0.0 0.8 1.4 0.8 0.0 0.0 0.0 0.0 0.0 0.0 0.0 0.0 0.0 0.0 0.0 0.0 0.0 0.0 0.0 0.0 0.0 0.0 0.0 0.0 0.0 0.0 0.0 0.0 0.0 0.0 0.0
0.0 0.0 0.0 0.0 0.0 0.0 0.0 0.0 0.0 0.1 0.3 0.0 0.0 0.0 0.0 0.0 0.0 0.0 0.0 0.0 0.0 0.0 0.0 0.0 0.0 0.0 0.0 0.0 0.0 0.0 0.0 0.0 0.0 0.0 0.0 0.0 0.0 0.0
0.0 0.0 0.0 0.0 0.0 0.0 0.0 0.0 0.0 0.0 0.0 0.0 0.0 0.0 0.0 0.0 0.0 0.0 0.0 0.0 0.0 0.0 0.0 0.0 0.0 0.0 0.0 0.0 0.0 0.0 0.0 0.0 0.0 0.0 0.0 0.0 0.0 0.0
2.0 0.0 0.0 0.0 0.0 0.0 0.0 0.0 0.0 0.0 0.0 0.2 0.0 0.0 0.0 0.0 0.0 0.0 0.0 0.0 0.0 0.0 0.0 0.0 0.0 0.0 0.0 0.0 0.0 0.0 0.0 0.0 0.0 0.0 0.0 0.0 0.0 0.1
0.8 0.7 0.5 0.0 0.0 0.0 0.0 0.0 0.0 0.1 0.1 0.2 0.1 0.2 0.2 0.0 0.1 0.3 0.2 0.1 0.1 0.0 0.0 0.0 0.0 0.0 0.0 0.0 0.0 0.0 0.0 0.0 0.0 0.0 0.0 0.0 0.0 0.0
0.1 0.1 0.1 0.1 0.0 0.0 0.0 0.0 0.1 0.4 0.5 0.6 0.4 0.3 0.1 0.0 0.3 0.6 0.7 0.4 0.1 0.0 0.3 0.2 0.0 0.0 0.0 0.0 0.0 0.0 0.0 0.0 0.0 0.0 0.1 0.0 0.0 0.0
4.7 3.0 1.7 0.3 3.6 0.5 0.0 0.1 0.2 0.8 1.3 1.0 0.4 0.5 0.1 0.5 0.6 0.6 0.7 0.7 0.6 0.4 0.7 0.5 0.1 0.4 0.0 0.8 0.0 0.7 0.0 0.0 0.2 0.0 0.0 0.0 0.1 0.8
6.2 6.6 5.3 5.3 4.0 2.9 3.1 1.9 1.5 0.1 0.7 0.9 1.3 0.7 0.7 0.6 0.6 0.4 1.1 2.5 1.9 0.2 0.5 0.5 0.4 0.2 0.0 0.0 0.0 0.0 0.0 0.0 0.0 0.0 0.1 0.1 0.1 0.0
3.2 2.9 1.4 1.4 3.3 2.9 4.8 4.9 2.6 2.6 2.6 3.6 5.1 4.6 4.0 4.1 1.8 1.9 1.1 2.2 0.3 1.5 1.1 1.6 1.3 1.4 0.9 0.0 0.0 0.0 0.0 0.0 0.0 0.0 0.0 0.0 0.1 0.1
0.7 0.7 0.7 0.7 0.6 1.2 0.7 0.8 1.0 1.3 1.3 2.1 3.6 3.2 4.9 3.4 4.8 6.3 6.7 7.4 8.0 4.0 0.7 1.7 1.0 1.0 0.6 1.6 1.1 0.7 0.3 1.2 1.3 0.6 1.3 3.3 3.6 3.7
0.2 0.3 0.2 0.5 1.3 1.2 1.8 1.6 1.6 1.1 1.6 1.5 1.4 0.8 2.0 1.7 1.5 1.7 2.4 4.9 5.2 5.3 3.4 4.7 3.6 5.4 9.7 11.0 8.9 6.3 5.5 4.9 5.3 3.9 3.8 3.7 3.6 3.6
0.1 0.1 0.1 2.4 2.2 1.2 0.9 1.0 1.6 1.8 1.3 1.0 0.9 1.8 1.2 1.4 1.7 1.3 1.8 3.6 4.2 2.8 4.3 11.5 14.3 12.8 14.7 12.7 9.3 6.8 5.4 5.5 5.3 3.4 2.6 2.2 2.0 1.9
5.9 6.7 6.5 3.8 5.3 3.6 3.0 4.0 4.0 5.1 4.9 3.4 3.1 4.5 10.9 7.0 7.9 7.7 9.4 9.7 8.4 9.8 10.5 10.2 12.7 12.2 11.7 10.9 8.4 6.6 4.4 4.4 4.5 5.6 6.0 5.3 4.1 3.2
10.2 10.1 9.5 9.3 10.2 9.9 11.0 10.9 10.9 12.5 12.5 15.9 22.8 21.5 20.0 17.2 15.2 12.8 10.9 10.3 11.1 7.9 10.0 10.5 10.5 9.7 9.3 11.0 8.8 6.3 8.5 5.4 3.8 3.9 6.5 6.9 7.6 6.8
5.1 5.1 5.5 6.2 6.0 10.3 12.1 9.2 12.5 20.2 21.3 22.4 21.4 21.4 19.5 17.9 16.8 16.4 14.8 15.4 15.2 13.8 13.6 13.4 13.1 14.0 14.9 13.7 12.9 11.3 9.8 9.9 7.4 8.3 10.1 11.9 13.6 13.0
6.7 12.9 17.1 11.4 14.9 16.9 16.0 16.3 16.1 16.4 16.1 15.7 14.9 14.4 12.7 12.1 11.6 10.8 11.0 10.2 10.6 8.9 8.8 10.4 9.9 10.3 9.8 10.3 11.7 10.1 9.6 9.4 9.4 11.2 9.2 12.4 14.1 14.0
14.5 14.6 14.5 14.1 13.4 12.8 12.7 11.9 10.1 10.0 8.9 8.1 7.3 6.6 6.6 6.2 5.5 4.7 4.7 5.4 5.6 4.7 4.6 5.1 7.1 6.7 6.7 6.2 6.6 8.4 7.0 6.6 6.5 6.7 6.8 9.8 11.7 14.9
10.6 8.0 9.7 9.0 7.6 6.5 5.9 5.5 5.2 4.5 3.1 3.6 3.8 3.1 2.1 1.7 1.9 1.8 1.5 1.3 1.6 1.4 1.6 2.8 3.5 5.3 6.4 6.0 4.5 3.4 6.3 4.9 4.4 4.7 4.0 6.1 9.1 10.2
5.2 4.7 5.0 4.1 3.1 2.7 3.0 2.8 2.7 1.6 1.7 1.0 1.3 1.2 1.5 1.8 1.7 1.2 0.9 1.3 1.1 0.6 0.6 0.5 0.6 1.7 4.9 7.4 6.8 2.4 2.5 6.5 4.3 3.5 3.3 4.4 3.9 5.4
3.4 3.3 2.9 3.0 3.1 2.7 2.6 2.7 2.8 2.8 1.6 2.9 2.5 3.1 3.2 3.4 2.7 2.0 2.6 2.0 1.9 1.7 1.1 0.3 0.1 0.8 1.5 2.4 5.0 2.8 1.6 1.5 1.8 2.2 3.6 4.0 2.9 4.0
2.9 2.7 1.7 2.4 2.1 1.9 2.4 2.4 2.5 2.0 2.3 2.4 2.1 1.6 2.0 2.0 2.2 1.5 1.6 1.7 1.2 1.3 0.6 0.3 0.3 0.9 1.7 2.3 2.8 2.7 1.5 2.1 0.9 1.1 2.1 3.2 5.4 6.9
2.2 1.5 1.6 1.6 1.5 1.6 1.6 1.8 1.7 1.6 1.7 2.4 2.1 1.8 1.8 2.1 1.7 1.6 1.3 1.3 1.3 0.9 0.7 1.1 1.2 1.1 1.3 0.9 1.2 3.0 1.5 2.2 1.4 2.4 2.7 1.7 2.9 2.1

GFSNE_prec_snow_153.txt.gz
Snowfall_Accumulation
0.0 0.0 0.0 0.0 0.0 0.0 0.0 0.0 4.1 3.8 0.5 0.0 0.0 0.0 0.0 0.0 0.0 0.0 0.0 0.0 0.0 0.0 0.0 0.0 0.0 0.0 0.0 0.0 0.0 0.0 0.0 0.0 0.0 0.0 0.0 0.0 0.0 0.0
0.0 0.0 0.0 0.0 0.0 0.0 0.0 0.0 0.8 1.4 0.8 0.0 0.0 0.0 0.0 0.0 0.0 0.0 0.0 0.0 0.0 0.0 0.0 0.0 0.0 0.0 0.0 0.0 0.0 0.0 0.0 0.0 0.0 0.0 0.0 0.0 0.0 0.0
0.2 0.4 0.3 0.0 0.0 0.0 0.0 0.0 0.0 0.1 0.3 0.0 0.0 0.0 0.0 0.0 0.0 0.0 0.0 0.0 0.0 0.0 0.0 0.0 0.0 0.0 0.0 0.0 0.0 0.0 0.0 0.0 0.0 0.0 0.0 0.0 0.0 0.0
0.4 1.0 1.3 1.1 0.8 0.0 0.0 0.0 0.0 0.0 0.0 0.0 0.0 0.0 0.0 0.0 0.0 0.0 0.0 0.0 0.0 0.0 0.0 0.0 0.0 0.0 0.0 0.0 0.0 0.0 0.0 0.0 0.0 0.0 0.0 0.0 0.0 0.0
3.1 1.7 2.3 1.8 1.8 0.0 0.0 0.0 0.0 0.0 0.0 0.2 0.0 0.0 0.0 0.0 0.0 0.0 0.0 0.0 0.0 0.0 0.0 0.0 0.0 0.0 0.0 0.0 0.0 0.0 0.0 0.0 0.0 0.0 0.0 0.0 0.0 0.1
1.8 2.1 2.0 1.5 1.8 1.3 0.0 0.0 0.0 0.1 0.1 0.2 0.1 0.2 0.2 0.0 0.1 0.3 0.2 0.1 0.1 0.0 0.0 0.0 0.0 0.0 0.0 0.0 0.0 0.0 0.0 0.0 0.0 0.0 0.0 0.0 0.0 0.0
0.3 0.3 0.5 0.4 0.4 0.3 0.2 0.2 0.1 0.4 0.5 0.6 0.4 0.3 0.1 0.0 0.3 0.6 0.7 0.4 0.1 0.0 0.3 0.2 0.0 0.0 0.0 0.0 0.0 0.0 0.0 0.0 0.0 0.0 0.1 0.0 0.0 0.0
4.7 3.0 1.7 0.3 3.6 0.7 0.1 0.1 0.3 0.9 1.3 1.0 0.4 0.5 0.1 0.5 0.6 0.6 0.7 0.7 0.6 0.4 0.7 0.5 0.1 0.4 0.0 0.8 0.0 0.7 0.0 0.0 0.2 0.0 0.0 0.0 0.1 0.8
6.2 6.6 5.3 5.3 4.0 2.9 3.1 1.9 1.5 0.1 0.8 1.0 1.4 0.9 0.9 0.6 0.6 0.4 1.1 2.5 1.9 0.2 0.5 0.5 0.4 0.2 0.0 0.0 0.0 0.0 0.0 0.0 0.0 0.0 0.1 0.1 0.1 0.0
3.2 2.9 1.4 1.4 3.3 2.9 4.8 4.9 2.6 2.6 2.6 3.8 5.4 5.0 4.6 4.6 2.3 2.6 1.1 2.2 0.3 2.5 1.1 1.6 6.0 6.8 0.9 4.7 2.7 0.0 0.0 0.0 0.0 0.0 0.0 0.0 0.1 0.1
0.7 0.7 0.7 0.7 0.6 1.2 0.7 0.8 1.0 1.3 1.3 2.1 3.6 3.2 4.9 3.4 4.8 6.3 7.7 8.6 9.4 5.4 2.4 4.4 5.0 6.6 7.3 1.6 4.6 0.7 0.3 1.2 1.3 0.6 1.3 3.3 3.6 3.7
0.2 0.3 0.2 0.5 1.3 1.2 1.8 1.6 1.6 1.1 1.6 1.5 1.4 0.8 2.0 1.7 1.5 1.7 3.0 5.7 6.6 7.0 5.1 7.0 6.2 8.5 13.3 15.3 13.5 9.6 5.5 7.8 5.3 3.9 3.8 3.7 3.6 3.6
0.1 0.1 0.1 2.4 2.2 1.2 0.9 1.0 1.6 1.8 1.3 1.0 0.9 1.8 1.2 1.4 1.7 1.3 2.0 3.8 4.3 3.0 4.7 12.3 15.3 14.1 16.2 14.0 10.6 7.7 6.2 6.7 6.5 3.4 2.6 2.2 2.0 1.9
5.9 6.7 6.5 3.8 5.3 3.6 3.0 4.0 4.0 5.1 4.9 3.4 3.1 4.5 10.9 7.0 7.9 7.7 9.4 9.7 8.4 9.8 10.5 10.2 12.7 12.4 11.9 11.1 8.5 6.6 4.4 4.5 4.5 5.6 6.0 5.3 4.1 3.2
10.2 10.1 9.5 9.3 10.2 9.9 11.0 10.9 10.9 12.5 12.5 15.9 22.8 21.5 20.0 17.2 15.2 12.8 10.9 10.3 11.1 7.9 10.0 10.5 10.5 9.7 9.3 11.0 8.8 6.3 8.5 5.4 3.8 3.9 6.5 6.9 7.6 6.8
5.1 5.1 5.5 6.2 6.0 10.3 12.1 9.2 12.5 20.2 21.3 22.4 21.4 21.4 19.5 17.9 16.8 16.4 14.8 15.4 15.2 13.8 13.6 13.4 13.1 14.0 14.9 13.7 12.9 11.3 9.8 9.9 7.4 8.3 10.1 11.9 13.6 13.0
6.7 12.9 17.1 11.4 14.9 16.9 16.0 16.3 16.1 16.4 16.1 15.7 14.9 14.4 12.7 12.1 11.6 10.8 11.0 10.2 10.6 8.9 8.8 10.4 9.9 10.3 9.8 10.3 11.7 10.1 9.6 9.4 9.4 11.2 9.2 12.4 14.1 14.0
14.5 14.6 14.5 14.1 13.4 12.8 12.7 11.9 10.1 10.0 8.9 8.1 7.3 6.6 6.6 6.2 5.5 4.7 4.7 5.4 5.6 4.7 4.6 5.1 7.1 6.7 6.7 6.2 6.6 8.4 7.0 6.6 6.5 6.7 6.8 9.8 11.7 14.9
10.6 8.0 9.7 9.0 7.6 6.5 5.9 5.5 5.4 4.5 3.1 3.6 3.8 3.1 2.1 1.7 1.9 1.8 1.5 1.3 1.6 1.4 1.6 2.8 3.5 5.3 6.4 6.0 4.5 3.4 6.3 4.9 4.4 4.7 4.0 6.1 9.1 10.2
5.2 4.7 5.0 4.1 3.1 2.7 3.0 2.8 2.7 1.6 1.8 1.0 1.3 1.2 1.5 1.8 1.7 1.2 0.9 1.3 1.1 0.6 0.6 0.5 0.6 1.7 4.9 7.4 6.8 2.4 2.5 6.5 4.3 3.5 3.3 4.4 3.9 5.4
3.4 3.3 2.9 3.0 3.1 2.7 2.6 2.7 2.8 2.8 1.6 3.1 2.5 3.1 3.2 3.4 2.7 2.0 2.6 2.0 1.9 1.7 1.1 0.3 0.1 0.8 1.5 2.4 5.0 2.8 1.6 1.5 1.8 2.2 3.6 4.0 2.9 4.0
2.9 2.7 1.7 2.4 2.1 1.9 2.4 2.4 2.5 2.0 2.3 2.7 2.2 1.6 2.0 2.0 2.2 1.5 1.6 1.7 1.2 1.3 0.6 0.3 0.3 0.9 1.7 2.3 2.8 2.7 1.5 2.1 0.9 1.1 2.1 3.2 5.5 6.9
2.2 1.5 1.6 1.6 1.5 1.6 1.6 1.8 1.7 1.6 1.7 2.6 2.2 1.8 1.8 2.1 1.7 1.6 1.3 1.3 1.3 0.9 0.7 1.1 1.2 1.1 1.3 0.9 1.2 3.0 1.5 2.2 1.4 2.4 2.7 1.7 2.9 2.1

GFSNE_prec_snow_156.txt.gz
Snowfall_Accumulation
0.0 0.1 0.0 0.0 0.0 0.0 0.0 0.0 4.1 3.8 0.5 0.0 0.0 0.0 0.0 0.0 0.0 0.0 0.0 0.0 0.0 0.0 0.0 0.0 0.0 0.0 0.0 0.0 0.0 0.0 0.0 0.0 0.0 0.0 0.0 0.0 0.0 0.0
0.0 0.0 0.0 0.0 0.0 0.0 0.0 0.0 0.8 1.4 0.8 0.0 0.0 0.0 0.0 0.0 0.0 0.0 0.0 0.0 0.0 0.0 0.0 0.0 0.0 0.0 0.0 0.0 0.0 0.0 0.0 0.0 0.0 0.0 0.0 0.0 0.0 0.0
0.2 0.4 0.3 0.0 0.1 0.0 0.0 0.0 0.0 0.1 0.3 0.0 0.0 0.0 0.0 0.0 0.0 0.0 0.0 0.0 0.0 0.0 0.0 0.0 0.0 0.0 0.0 0.0 0.0 0.0 0.0 0.0 0.0 0.0 0.0 0.0 0.0 0.0
0.5 1.0 1.6 1.1 1.2 0.2 0.2 0.0 0.0 0.0 0.0 0.0 0.0 0.0 0.0 0.0 0.0 0.0 0.0 0.0 0.0 0.0 0.0 0.0 0.0 0.0 0.0 0.0 0.0 0.0 0.0 0.0 0.0 0.0 0.0 0.0 0.0 0.0
3.3 2.0 2.3 1.8 3.5 2.4 1.6 0.5 0.0 0.0 0.0 0.2 0.0 0.0 0.0 0.0 0.0 0.0 0.0 0.0 0.0 0.0 0.0 0.0 0.0 0.0 0.0 0.0 0.0 0.0 0.0 0.0 0.0 0.0 0.0 0.0 0.0 0.1
1.8 2.1 2.4 1.5 3.6 3.8 3.1 2.5 1.5 1.1 0.1 0.2 0.1 0.2 0.2 0.0 0.1 0.3 0.2 0.1 0.1 0.0 0.0 0.0 0.0 0.0 0.0 0.0 0.0 0.0 0.0 0.0 0.0 0.0 0.0 0.0 0.0 0.0
0.3 0.3 0.5 0.4 1.0 1.8 2.1 2.2 2.3 2.2 1.3 0.6 0.4 0.3 0.1 0.0 0.3 0.6 0.7 0.4 0.1 0.0 0.3 0.2 0.0 0.0 0.0 0.0 0.0 0.0 0.0 0.0 0.0 0.0 0.1 0.0 0.0 0.0
4.7 3.0 1.7 0.3 3.6 0.7 0.5 1.0 1.3 2.1 2.1 1.2 0.4 0.5 0.1 0.5 0.6 0.6 0.7 0.7 0.6 0.4 0.7 0.5 0.1 0.4 0.0 0.8 0.0 0.7 0.0 0.0 0.2 0.0 0.0 0.0 0.1 0.8
6.2 6.6 5.3 5.3 4.0 2.9 3.1 1.9 1.6 0.3 1.2 1.4 1.6 1.1 1.1 0.8 0.6 0.4 1.1 2.5 1.9 0.2 0.5 0.5 0.4 0.2 0.0 0.0 0.0 0.0 0.0 0.0 0.0 0.0 0.1 0.1 0.1 0.0
3.2 2.9 1.4 1.4 3.3 2.9 4.8 4.9 2.6 2.6 2.6 3.9 5.6 5.3 5.0 4.9 2.5 2.8 1.2 2.3 0.6 3.1 1.1 1.8 6.0 6.8 1.7 4.7 2.7 0.0 0.0 0.0 0.0 0.0 0.0 0.0 0.1 0.1
0.7 0.7 0.7 0.7 0.6 1.2 0.7 0.8 1.0 1.3 1.3 2.1 3.6 3.2 4.9 3.4 4.9 6.3 7.9 8.6 9.8 6.2 3.2 5.0 5.7 7.6 8.3 3.4 7.7 4.8 5.8 6.8 6.6 0.6 1.3 3.3 3.6 3.7
0.2 0.3 0.2 0.5 1.3 1.2 1.8 1.6 1.6 1.1 1.6 1.5 1.4 0.8 2.0 1.7 1.5 1.7 3.1 6.1 7.3 8.0 6.4 7.9 7.1 8.5 14.6 17.1 16.0 12.7 9.6 12.8 10.8 8.8 7.2 3.7 3.6 3.6
0.1 0.1 0.1 2.4 2.2 1.2 0.9 1.0 1.6 1.8 1.3 1.0 0.9 1.8 1.2 1.4 1.7 1.3 2.0 3.8 4.3 3.4 5.2 13.0 16.0 14.9 17.4 15.6 12.7 10.2 9.2 10.2 10.9 8.2 6.9 5.6 2.0 1.9
6.0 6.7 6.5 3.8 5.3 3.6 3.0 4.0 4.0 5.1 4.9 3.4 3.1 4.5 10.9 7.0 7.9 7.7 9.4 9.7 8.4 9.8 10.5 10.2 12.9 12.6 12.3 11.5 9.0 7.2 5.4 5.6 5.7 7.3 8.2 7.6 6.4 5.4
10.2 10.1 9.5 9.3 10.2 9.9 11.0 10.9 10.9 12.5 12.5 15.9 22.8 21.5 20.0 17.2 15.2 12.8 10.9 10.3 11.1 7.9 10.0 10.5 10.5 9.7 9.3 11.0 9.0 6.3 8.5 5.6 3.9 4.1 6.9 7.3 7.9 7.2
5.1 5.1 5.5 6.2 6.0 10.3 12.1 9.2 12.5 20.2 21.3 22.4 21.4 21.4 19.5 17.9 16.8 16.4 14.8 15.4 15.2 13.8 13.6 13.4 13.1 14.0 14.9 13.7 12.9 11.3 9.8 9.9 7.4 8.3 10.1 11.9 13.6 13.0
6.7 12.9 17.1 11.4 14.9 16.9 16.0 16.3 16.1 16.4 16.1 15.7 14.9 14.4 12.7 12.1 11.6 10.8 11.0 10.2 10.6 8.9 8.8 10.4 9.9 10.3 9.8 10.3 11.7 10.1 9.6 9.4 9.4 11.2 9.2 12.4 14.1 14.0
14.5 14.6 14.5 14.1 13.4 12.8 12.7 11.9 10.1 10.0 8.9 8.1 7.3 6.6 6.6 6.2 5.5 4.7 4.7 5.4 5.6 4.7 4.6 5.1 7.1 6.7 6.7 6.2 6.6 8.4 7.0 6.6 6.5 6.7 6.8 9.8 11.7 14.9
10.6 8.0 9.7 9.0 7.6 6.5 5.9 5.5 5.4 4.6 3.2 3.6 3.8 3.1 2.1 1.7 1.9 1.8 1.5 1.3 1.6 1.4 1.6 2.8 3.5 5.3 6.4 6.0 4.5 3.4 6.3 4.9 4.4 4.7 4.0 6.1 9.1 10.2
5.2 4.7 5.0 4.1 3.1 2.7 3.0 2.8 2.7 1.6 1.8 1.0 1.3 1.2 1.5 1.8 1.7 1.2 0.9 1.3 1.1 0.6 0.6 0.5 0.6 1.7 4.9 7.4 6.8 2.4 2.5 6.5 4.3 3.5 3.3 4.4 3.9 5.4
3.4 3.3 2.9 3.0 3.1 2.7 2.6 2.7 2.8 2.8 1.7 3.2 2.5 3.1 3.2 3.4 2.7 2.0 2.6 2.0 1.9 1.7 1.1 0.3 0.1 0.8 1.5 2.4 5.0 2.8 1.6 1.5 1.8 2.2 3.6 4.0 2.9 4.0
2.9 2.7 1.7 2.4 2.1 1.9 2.4 2.4 2.5 2.0 2.3 2.7 2.2 1.6 2.0 2.0 2.2 1.5 1.6 1.7 1.2 1.3 0.6 0.3 0.3 0.9 1.7 2.3 2.8 2.7 1.5 2.1 0.9 1.1 2.1 3.2 5.8 7.2
2.2 1.5 1.6 1.6 1.5 1.6 1.6 1.8 1.7 1.6 1.7 2.6 2.2 1.8 1.8 2.1 1.7 1.6 1.3 1.3 1.3 0.9 0.7 1.1 1.2 1.1 1.3 0.9 1.2 3.0 1.5 2.2 1.4 2.4 2.7 1.7 2.9 2.1

GFSNE_prec_snow_159.txt.gz
Snowfall_Accumulation
0.0 0.1 0.0 0.0 0.0 0.0 0.1 0.2 4.2 3.8 0.5 0.0 0.0 0.0 0.0 0.0 0.0 0.0 0.0 0.0 0.0 0.0 0.0 0.0 0.0 0.0 0.0 0.0 0.0 0.0 0.0 0.0 0.0 0.0 0.0 0.0 0.0 0.0
0.0 0.0 0.0 0.0 0.0 0.0 0.0 0.0 0.9 1.5 0.8 0.0 0.0 0.0 0.0 0.0 0.0 0.0 0.0 0.0 0.0 0.0 0.0 0.0 0.0 0.0 0.0 0.0 0.0 0.0 0.0 0.0 0.0 0.0 0.0 0.0 0.0 0.0
0.2 0.4 0.3 0.0 0.1 0.0 0.0 0.0 0.0 0.2 0.3 0.0 0.0 0.0 0.0 0.0 0.0 0.0 0.0 0.0 0.0 0.0 0.0 0.0 0.0 0.0 0.0 0.0 0.0 0.0 0.0 0.0 0.0 0.0 0.0 0.0 0.0 0.0
0.5 1.0 1.6 1.1 1.3 0.3 0.2 0.0 0.1 0.2 0.2 0.0 0.0 0.0 0.0 0.0 0.0 0.0 0.0 0.0 0.0 0.0 0.0 0.0 0.0 0.0 0.0 0.0 0.0 0.0 0.0 0.0 0.0 0.0 0.0 0.0 0.0 0.0
3.4 2.0 2.3 1.9 3.5 2.6 2.0 1.0 0.2 0.6 0.9 0.2 0.0 0.0 0.0 0.0 0.0 0.0 0.0 0.0 0.0 0.0 0.0 0.0 0.0 0.0 0.0 0.0 0.0 0.0 0.0 0.0 0.0 0.0 0.0 0.0 0.0 0.1
1.8 2.1 2.4 1.5 3.7 4.0 3.6 4.1 3.2 2.1 1.3 1.4 0.5 0.2 0.2 0.0 0.1 0.3 0.2 0.1 0.1 0.0 0.0 0.0 0.0 0.0 0.0 0.0 0.0 0.0 0.0 0.0 0.0 0.0 0.0 0.0 0.0 0.0
0.3 0.3 0.5 0.4 1.0 1.8 2.5 3.4 2.3 4.4 3.8 2.7 1.9 0.8 0.1 0.0 0.3 0.6 0.7 0.4 0.1 0.0 0.3 0.2 0.0 0.0 0.0 0.0 0.0 0.0 0.0 0.0 0.0 0.0 0.1 0.0 0.0 0.0
4.7 3.0 1.7 0.3 3.6 0.7 0.5 1.4 2.5 4.3 4.1 3.4 3.0 2.6 1.1 0.5 0.6 1.3 0.7 0.7 0.6 0.4 0.7 0.5 0.1 0.4 0.0 0.8 0.0 0.7 0.0 0.0 0.2 0.0 0.0 0.0 0.1 0.8
6.2 6.6 5.3 5.3 4.0 2.9 3.1 1.9 1.6 1.0 2.9 3.1 2.9 2.3 2.5 1.7 1.2 0.9 1.1 3.2 2.3 0.2 0.5 0.5 0.4 0.2 0.0 0.0 0.0 0.0 0.0 0.0 0.0 0.0 0.1 0.1 0.1 0.0
3.2 2.9 1.4 1.4 3.3 2.9 4.8 4.9 2.6 2.6 2.9 4.6 6.5 6.3 6.1 5.6 3.2 3.5 1.5 2.6 0.9 3.3 1.2 1.9 6.0 6.9 1.7 4.7 2.7 0.0 0.0 0.0 0.0 0.0 0.0 0.0 0.1 0.1
0.7 0.7 0.7 0.7 0.6 1.2 0.7 0.8 1.0 1.3 1.3 2.1 3.8 3.3 5.0 3.6 5.2 6.5 8.2 8.8 10.0 6.5 3.4 5.2 5.9 7.9 8.5 3.5 7.8 4.8 5.8 6.8 6.6 0.6 1.3 3.3 3.6 3.7
0.2 0.3 0.2 0.5 1.3 1.2 1.8 1.6 1.6 1.1 1.6 1.5 1.4 0.8 2.0 1.7 1.5 1.7 3.3 6.3 7.6 8.3 6.8 8.3 7.5 8.8 14.9 17.3 16.3 12.7 9.6 13.1 10.8 8.8 7.2 6.7 3.6 3.6
0.1 0.1 0.1 2.4 2.2 1.2 0.9 1.0 1.6 1.8 1.3 1.0 0.9 1.8 1.2 1.4 1.7 1.3 2.0 3.8 4.3 3.6 5.4 13.2 16.2 15.2 17.8 16.0 13.2 10.7 9.7 10.9 11.7 8.2 6.9 5.6 5.0 1.9
6.0 6.7 6.5 3.8 5.3 3.6 3.0 4.0 4.0 5.1 4.9 3.4 3.1 4.5 10.9 7.0 7.9 7.7 9.4 9.7 8.4 9.8 10.5 10.2 12.9 12.6 12.3 11.5 9.0 7.2 5.4 5.6 5.7 7.3 9.6 7.6 6.4 9.0
10.2 10.1 9.5 9.3 10.2 9.9 11.0 10.9 10.9 12.5 12.5 15.9 22.8 21.5 20.0 17.2 15.2 12.8 10.9 10.3 11.1 7.9 10.0 10.5 10.5 9.7 9.3 11.0 9.0 6.3 8.5 5.6 3.9 4.1 6.9 8.3 9.6 9.2
5.1 5.1 5.5 6.2 6.0 10.3 12.1 9.2 12.5 20.2 21.3 22.4 21.4 21.4 19.5 17.9 16.8 16.4 14.8 15.4 15.2 13.8 13.6 13.4 13.1 14.0 14.9 13.7 12.9 11.3 9.8 10.0 7.4 8.3 10.1 12.1 14.0 13.6
6.7 12.9 17.1 11.4 14.9 16.9 16.0 16.3 16.1 16.4 16.1 15.7 14.9 14.4 12.7 12.1 11.6 10.8 11.0 10.2 10.6 8.9 8.8 10.4 9.9 10.3 9.8 10.3 11.7 10.1 9.6 9.4 9.4 11.2 9.2 12.4 14.1 14.0
14.5 14.6 14.5 14.1 13.4 12.8 12.7 11.9 10.1 10.0 8.9 8.1 7.3 6.6 6.6 6.2 5.5 4.7 4.7 5.4 5.6 4.7 4.6 5.1 7.1 6.7 6.7 6.2 6.6 8.4 7.0 6.6 6.5 6.7 6.8 9.8 11.7 14.9
10.6 8.0 9.7 9.0 7.6 6.5 5.9 5.5 5.4 4.6 3.2 3.6 3.8 3.1 2.1 1.7 1.9 1.8 1.5 1.3 1.6 1.4 1.6 2.8 3.5 5.3 6.4 6.0 4.5 3.4 6.3 4.9 4.4 4.7 4.0 6.1 9.1 10.2
5.2 4.7 5.0 4.1 3.1 2.7 3.0 2.8 2.7 1.6 1.8 1.0 1.3 1.2 1.5 1.8 1.7 1.2 0.9 1.3 1.1 0.6 0.6 0.5 0.6 1.7 4.9 7.4 6.8 2.4 2.5 6.5 4.3 3.5 3.3 4.4 3.9 5.4
3.4 3.3 2.9 3.0 3.1 2.7 2.6 2.7 2.8 2.8 1.7 3.2 2.5 3.1 3.2 3.4 2.7 2.0 2.6 2.0 1.9 1.7 1.1 0.3 0.1 0.8 1.5 2.4 5.0 2.8 1.6 1.5 1.8 2.2 3.6 4.0 2.9 4.0
2.9 2.7 1.7 2.4 2.1 1.9 2.4 2.4 2.5 2.0 2.3 2.7 2.2 1.6 2.0 2.0 2.2 1.5 1.6 1.7 1.2 1.3 0.6 0.3 0.3 0.9 1.7 2.3 2.8 2.7 1.5 2.1 0.9 1.1 2.1 3.2 5.9 7.2
2.2 1.5 1.6 1.6 1.5 1.6 1.6 1.8 1.7 1.6 1.8 2.6 2.2 1.8 1.8 2.1 1.7 1.6 1.3 1.3 1.3 0.9 0.7 1.1 1.2 1.1 1.3 0.9 1.2 3.0 1.5 2.2 1.4 2.4 2.7 1.7 2.9 2.1

GFSNE_prec_snow_162.txt.gz
Snowfall_Accumulation
0.0 0.1 0.0 0.0 0.0 0.1 0.1 0.3 4.4 3.9 0.5 0.0 0.0 0.0 0.0 0.0 0.0 0.0 0.0 0.0 0.0 0.0 0.0 0.0 0.0 0.0 0.0 0.0 0.0 0.0 0.0 0.0 0.0 0.0 0.0 0.0 0.0 0.0
0.0 0.0 0.0 0.0 0.0 0.0 0.0 0.1 0.9 1.7 1.0 0.0 0.0 0.0 0.0 0.0 0.0 0.0 0.0 0.0 0.0 0.0 0.0 0.0 0.0 0.0 0.0 0.0 0.0 0.0 0.0 0.0 0.0 0.0 0.0 0.0 0.0 0.0
0.2 0.4 0.3 0.0 0.1 0.0 0.0 0.1 0.1 0.3 0.3 0.0 0.0 0.0 0.0 0.0 0.0 0.0 0.0 0.0 0.0 0.0 0.0 0.0 0.0 0.0 0.0 0.0 0.0 0.0 0.0 0.0 0.0 0.0 0.0 0.0 0.0 0.0
0.5 1.0 1.6 1.2 1.3 0.3 0.2 0.0 0.2 0.2 0.2 0.0 0.0 0.0 0.0 0.0 0.0 0.0 0.0 0.0 0.0 0.0 0.0 0.0 0.0 0.0 0.0 0.0 0.0 0.0 0.0 0.0 0.0 0.0 0.0 0.0 0.0 0.0
3.4 2.0 2.3 1.9 3.5 2.6 2.0 1.0 0.2 0.6 0.9 0.2 0.0 0.0 0.3 0.0 0.0 0.0 0.0 0.0 0.0 0.0 0.0 0.0 0.0 0.0 0.0 0.0 0.0 0.0 0.0 0.0 0.0 0.0 0.0 0.0 0.0 0.1
1.8 2.1 2.4 1.5 3.7 4.1 3.6 4.2 3.2 2.1 1.3 1.4 0.5 0.6 0.5 0.9 1.2 0.3 0.2 0.1 0.1 0.0 0.0 0.0 0.0 0.0 0.0 0.0 0.0 0.0 0.0 0.0 0.0 0.0 0.0 0.0 0.0 0.0
0.3 0.3 0.5 0.4 1.0 1.8 2.6 3.5 2.4 4.4 3.8 3.0 1.9 0.8 1.0 0.5 1.9 2.5 2.1 2.0 0.1 0.0 0.3 0.2 0.0 0.0 0.0 0.0 0.0 0.0 0.0 0.0 0.0 0.0 0.1 0.0 0.0 0.0
4.7 3.0 1.7 0.3 3.6 0.7 0.5 1.5 2.6 4.4 4.3 3.9 4.5 4.6 3.2 2.5 1.8 3.5 3.0 2.2 2.2 2.7 0.7 0.5 0.1 0.4 0.0 0.8 0.0 0.7 0.0 0.0 0.2 0.0 0.0 0.0 0.1 0.8
6.2 6.6 5.3 5.3 4.0 2.9 3.1 1.9 1.6 1.0 3.1 3.5 3.5 4.0 5.0 4.5 3.6 2.3 2.9 5.3 4.0 1.5 1.5 1.7 0.4 0.2 0.0 0.0 0.0 0.0 0.0 0.0 0.0 0.0 0.1 0.1 0.1 0.0
3.2 2.9 1.4 1.4 3.3 2.9 4.8 4.9 2.6 2.6 2.9 4.8 7.1 6.9 7.2 7.6 5.2 5.4 3.1 4.0 2.3 4.7 2.0 2.5 6.5 7.7 2.1 4.7 2.7 0.0 0.0 0.0 0.0 0.0 0.0 0.0 0.1 0.1
0.7 0.7 0.7 0.7 0.6 1.2 0.7 0.8 1.0 1.3 1.3 2.1 3.8 3.7 5.3 4.0 6.1 7.7 9.4 10.0 11.0 7.3 4.0 5.8 6.4 8.3 8.6 3.6 7.8 4.8 5.8 6.8 6.6 0.6 1.3 3.3 3.6 3.7
0.2 0.3 0.2 0.5 1.3 1.2 1.8 1.6 1.6 1.1 1.6 1.5 1.4 0.8 2.0 1.8 1.5 2.1 4.0 7.1 8.5 9.0 7.3 8.9 7.9 9.2 15.1 17.3 16.3 12.7 9.6 13.1 10.8 8.8 7.2 6.7 3.6 3.6
0.1 0.1 0.1 2.4 2.2 1.2 0.9 1.0 1.6 1.8 1.3 1.0 0.9 1.8 1.2 1.4 1.7 1.3 2.1 3.9 4.5 3.9 5.7 13.4 16.4 15.4 18.0 16.2 13.2 10.7 9.7 10.9 11.7 8.2 6.9 5.6 5.0 1.9
6.0 6.7 6.5 3.8 5.3 3.6 3.0 4.0 4.0 5.1 4.9 3.4 3.1 4.5 10.9 7.0 7.9 7.7 9.4 9.7 8.4 9.8 10.5 10.2 12.9 12.6 12.3 11.5 9.0 7.2 5.4 5.6 5.7 7.3 9.6 7.6 6.4 9.0
10.2 10.1 9.5 9.3 10.2 9.9 11.0 10.9 10.9 12.5 12.5 15.9 22.8 21.5 20.0 17.2 15.2 12.8 10.9 10.3 11.1 7.9 10.0 10.5 10.5 9.7 9.3 11.0 9.0 6.3 8.5 5.6 3.9 4.1 6.9 8.3 9.6 9.2
5.1 5.1 5.5 6.2 6.0 10.3 12.1 9.2 12.5 20.2 21.3 22.4 21.4 21.4 19.5 17.9 16.8 16.4 14.8 15.4 15.2 13.8 13.6 13.4 13.1 14.0 14.9 13.7 12.9 11.3 9.8 10.0 7.4 8.3 10.1 12.1 14.0 13.6
6.7 12.9 17.1 11.4 14.9 16.9 16.0 16.3 16.1 16.4 16.1 15.7 14.9 14.4 12.7 12.1 11.6 10.8 11.0 10.2 10.6 8.9 8.8 10.4 9.9 10.3 9.8 10.3 11.7 10.1 9.6 9.4 9.4 11.2 9.2 12.4 14.1 14.0
14.5 14.6 14.5 14.1 13.4 12.8 12.7 11.9 10.1 10.0 8.9 8.1 7.3 6.6 6.6 6.2 5.5 4.7 4.7 5.4 5.6 4.7 4.6 5.1 7.1 6.7 6.7 6.2 6.6 8.4 7.0 6.6 6.5 6.7 6.8 9.8 11.7 14.9
10.6 8.0 9.7 9.0 7.6 6.5 5.9 5.5 5.4 4.6 3.2 3.6 3.8 3.1 2.1 1.7 1.9 1.8 1.5 1.3 1.6 1.4 1.6 2.8 3.5 5.3 6.4 6.0 4.5 3.4 6.3 4.9 4.4 4.7 4.0 6.1 9.1 10.2
5.2 4.7 5.0 4.1 3.1 2.7 3.0 2.8 2.7 1.6 1.8 1.0 1.3 1.2 1.5 1.8 1.7 1.2 0.9 1.3 1.1 0.6 0.6 0.5 0.6 1.7 4.9 7.4 6.8 2.4 2.5 6.5 4.3 3.5 3.3 4.4 3.9 5.4
3.4 3.3 2.9 3.0 3.1 2.7 2.6 2.7 2.8 2.8 1.7 3.2 2.5 3.1 3.2 3.4 2.7 2.0 2.6 2.0 1.9 1.7 1.1 0.3 0.1 0.8 1.5 2.4 5.0 2.8 1.6 1.5 1.8 2.2 3.6 4.0 2.9 4.0
2.9 2.7 1.7 2.4 2.1 1.9 2.4 2.4 2.5 2.0 2.3 2.7 2.2 1.6 2.0 2.0 2.2 1.5 1.6 1.7 1.2 1.3 0.6 0.3 0.3 0.9 1.7 2.3 2.8 2.7 1.5 2.1 0.9 1.1 2.1 3.2 5.9 7.2
2.2 1.5 1.6 1.6 1.5 1.6 1.6 1.8 1.7 1.6 1.8 2.6 2.2 1.8 1.8 2.1 1.7 1.6 1.3 1.3 1.3 0.9 0.7 1.1 1.2 1.1 1.3 0.9 1.2 3.0 1.5 2.2 1.4 2.4 2.7 1.7 2.9 2.1